Flag for U.S.A. Weather past 2 weeks in Olympia, Washington, U.S.A.

Now
45 °F

Light rain. Fog.


Feels Like: 43 °F
Forecast: 41 / 49 °F
Wind: 5 mph from East

Location: Olympia Airport

Current Time: Dec 18, 2014 at 11:58:19 AM

Latest Report: Dec 18, 2014 at 10:54 AM


Visibility: 3 mi

Pressure: 29.90 "Hg

Humidity: 97%

Dew point: 44 °F

Location of OlympiaLocation

Historic Weather in Olympia — Graph

°F

Olympia temperature yesterday

Maximum temperature yesterday: 47 °F (at 2:54 PM)
Minimum temperature yesterday: 37 °F (at 12:54 AM)
Average temperature yesterday: 43 °F

Past Weeks' High & Low Weather Summary

 TemperatureHumidityPressure
High64 °F (Dec 10, 9:54 AM)100% (Dec 5, 8:54 PM)30.24 "Hg (Dec 5, 8:54 PM)
Low25 °F (Dec 14, 11:54 PM)54% (Dec 10, 9:54 AM)29.11 "Hg (Dec 11, 3:54 PM)
Average44 °F91%29.87 "Hg
* Reported Dec 3 10:54 AM — Dec 18 10:54 AM, Olympia, Weather by CustomWeather, © 2014

Note: Actual official high and low records may vary slightly from our data, if they occured in-between our weather recording intervals... More about our weather records

Advertising

Olympia weather history for previous 24 hours

 ConditionsComfort  
Time TempWeatherWind HumidityBarometerVisibility
10:54 AM
Dec 18
45 °FLight rain. Fog.5 mph97%29.90 "Hg3 mi
9:54 AM44 °FLight rain. Overcast.No wind96%29.91 "Hg6 mi
8:54 AM42 °FMostly cloudy.No wind96%29.91 "Hg6 mi
7:54 AM40 °FFog.No wind100%29.93 "Hg1 mi
6:54 AM42 °FFog.No wind96%29.93 "Hg1 mi
5:54 AM43 °FFog.No wind97%29.93 "Hg6 mi
4:54 AM44 °FPartly cloudy.5 mph93%29.94 "Hg10 mi
3:54 AM44 °FMostly cloudy.5 mph93%29.95 "Hg10 mi
2:54 AM45 °FMostly cloudy.6 mph93%29.96 "Hg7 mi
1:54 AM45 °FLight rain. Low clouds.6 mph93%29.95 "Hg9 mi
12:54 AM45 °FMostly cloudy.5 mph93%29.94 "Hg8 mi
11:54 PM
Dec 17
45 °FFog.7 mph93%29.94 "Hg6 mi
10:54 PM44 °FLight rain. Fog.5 mph96%29.93 "Hg4 mi
9:54 PM44 °FFog.5 mph96%29.92 "Hg4 mi
8:54 PM44 °FFog.3 mph93%29.92 "Hg5 mi
7:54 PM44 °FOvercast.No wind96%29.90 "Hg7 mi
6:54 PM45 °FFog.No wind97%29.90 "Hg2 mi
5:54 PM45 °FFog.No wind97%29.89 "Hg4 mi
4:54 PM45 °FLight rain. Fog.No wind97%29.87 "Hg6 mi
3:54 PM47 °FMostly cloudy.No wind86%29.86 "Hg9 mi
2:54 PM47 °FPartly sunny.3 mph86%29.84 "Hg10 mi
1:54 PM46 °FMore clouds than sun.No wind89%29.84 "Hg10 mi
12:54 PM46 °FMostly cloudy.No wind89%29.84 "Hg9 mi
11:54 AM45 °FFog.No wind93%29.85 "Hg6 mi
Weather by CustomWeather, © 2014

See weather overviewHow to use our weather pages